Dewpoint
-7 -7 -8 -14 -17 -16 -12 -9 -6 -2 -2 -3 -3 -4 -5 -5 -4 -4 -4 -2 -2 -2 -3 -3 -4 -4 -4 -3 -3 -2 0 0 -1 -2 -4 -7 -7 -8 -8 -8 -8 -8 -9 -9 -9
-7 -7 -8 -14 -13 -13 -9 -6 -3 -2 -3 -3 -3 -4 -5 -5 -6 -5 -3 -3 -2 -3 -4 -4 -3 -4 -3 -3 -3 -2 1 -0 -3 -5 -6 -7 -7 -8 -8 -8 -8 -9 -9 -9 -9
-7 -8 -9 -13 -7 -4 -5 -6 -2 -2 -2 -3 -4 -4 -5 -6 -7 -4 -4 -4 -3 -3 -3 -4 -6 -7 -4 -4 -3 -3 -1 -5 -5 -6 -7 -7 -7 -8 -8 -8 -8 -8 -8 -8 -9
-9 -8 -12 -4 -3 -4 -5 -3 -2 -3 -4 -4 -4 -4 -6 -5 -4 -4 -4 -3 -3 -3 -4 -5 -6 -6 -4 -3 -4 -3 -4 -5 -4 -6 -7 -7 -8 -8 -7 -8 -8 -8 -8 -8 -8
-9 -10 -6 -4 -4 -4 -3 -3 -4 -4 -3 -4 -5 -5 -5 -7 -5 -3 -3 -4 -3 -4 -4 -6 -8 -4 -3 -4 -4 -5 -6 -6 -6 -6 -7 -7 -8 -8 -8 -8 -8 -8 -8 -8 -9
-10 -8 -4 -4 -3 -3 -4 -5 -4 -3 -5 -5 -5 -5 -7 -4 -5 -3 -3 -5 -5 -4 -6 -7 -6 -5 -5 -6 -5 -6 -7 -7 -7 -7 -7 -7 -8 -9 -8 -8 -8 -8 -8 -9 -9
-10 -5 -5 -4 -2 -4 -4 -3 -3 -3 -4 -4 -4 -5 -6 -4 -4 -4 -4 -4 -5 -4 -6 -4 -4 -5 -5 -6 -7 -7 -6 -7 -8 -8 -8 -8 -7 -9 -8 -8 -8 -8 -8 -8 -9
-6 -5 -5 -3 -4 -4 -3 -3 -3 -3 -4 -5 -5 -5 -4 -3 -4 -3 -4 -3 -4 -5 -6 -5 -6 -6 -6 -6 -5 -5 -4 -2 -6 -8 -8 -6 -3 -9 -8 -8 -8 -8 -8 -8 -9
-5 -4 -3 -4 -4 -4 -3 -3 -4 -4 -4 -5 -6 -6 -5 -4 -5 -4 -4 -4 -4 -4 -4 -4 -4 -5 -4 -3 -2 -3 -2 -1 -3 -7 -8 -6 -4 -9 -8 -8 -8 -8 -8 -8 -8
-3 -2 -4 -4 -4 -4 -4 -4 -5 -5 -5 -5 -6 -7 -5 -5 -5 -5 -5 -5 -5 -5 -5 -5 -6 -6 -6 -3 -4 -1 -2 -2 -1 -4 -8 -7 -6 -9 -8 -8 -8 -8 -8 -8 -8
-2 -3 -4 -4 -5 -5 -5 -5 -6 -7 -6 -5 -5 -5 -5 -5 -6 -6 -5 -5 -5 -7 -6 -9 -6 -5 -6 -6 -5 -5 -5 -5 -4 -5 -6 -5 -6 -6 -9 -8 -8 -8 -8 -8 -9
-2 -3 -3 -3 -5 -5 -5 -5 -5 -6 -5 -5 -6 -6 -6 -7 -7 -6 -6 -7 -7 -6 -7 -9 -6 -7 -7 -7 -7 -5 -5 -6 -6 -5 -5 -4 -4 -6 -9 -10 -9 -9 -9 -9 -9
-2 -3 -3 -3 -3 -3 -5 -6 -5 -5 -5 -4 -6 -6 -5 -6 -5 -5 -5 -5 -9 -7 -7 -6 -7 -6 -7 -6 -9 -5 -6 -6 -6 -6 -6 -6 -5 -7 -9 -10 -10 -10 -10 -10 -9
-1 -3 -3 -3 -4 -5 -5 -4 -4 -4 -6 -6 -5 -5 -5 -4 -5 -5 -6 -5 -5 -6 -5 -5 -6 -7 -6 -6 -7 -8 -6 -7 -6 -5 -4 -6 -3 -6 -7 -8 -9 -10 -10 -9 -9
-2 -3 -3 -3 -4 -4 -4 -3 -4 -4 -4 -6 -4 -4 -5 -5 -5 -6 -5 -6 -5 -4 -5 -5 -5 -8 -8 -6 -5 -8 -6 -5 -5 -4 -3 -4 -3 -5 -7 -7 -8 -9 -9 -9 -9
-2 -3 -3 -2 -4 -4 -3 -5 -4 -2 -3 -4 -4 -4 -5 -4 -4 -4 -6 -5 -5 -5 -5 -5 -5 -6 -6 -6 -6 -6 -6 -6 -3 -3 -1 -4 -3 -4 -5 -7 -8 -9 -9 -9 -9
-2 -1 -2 -2 -2 -4 -3 -4 -1 1 -4 -3 -3 -4 -3 -3 -4 -4 -5 -4 -4 -2 -4 -5 -4 -6 -7 -10 -9 -8 -6 -2 -2 -2 -2 -4 -3 -4 -7 -8 -9 -9 -9 -9 -9
-2 -2 -2 -2 -2 -3 -4 -1 1 -3 -3 -4 -3 -4 -4 -3 -3 -3 -4 -3 -4 -3 -4 -6 -11 -6 -7 -9 -10 -5 -7 -3 -2 -2 -3 -5 -2 -5 -10 -11 -10 -10 -9 -9 -8
-1 -2 -2 -3 -3 -4 -5 1 -0 -3 -4 -2 -3 -2 -2 -3 -3 -3 -2 -2 -3 -5 -4 -7 -9 -6 -6 -7 -9 -7 -7 -9 -7 -7 -5 -6 -8 -9 -10 -11 -10 -10 -10 -9 -8
-1 -1 -2 -3 -3 -4 -0 1 -1 -2 -2 -3 -2 -2 -1 -2 -2 -2 -1 -3 -2 -5 -5 -5 -5 -5 -5 -6 -8 -9 -10 -6 -6 -2 -1 -3 -6 -5 -8 -9 -10 -9 -9 -8 -8
-1 -2 -2 -3 -3 -2 2 -1 -1 -1 -1 -2 -2 -2 -2 -2 -2 -2 -2 -3 -4 -5 -7 -7 -5 -8 -6 -5 -5 -6 -7 -9 -8 -6 -3 -2 -3 -9 -9 -10 -10 -10 -9 -9 -8
-0 -0 -1 -3 -0 -0 -0 -1 -2 -1 -1 -1 -2 -2 -2 -1 -1 -1 -1 -2 -5 -6 -5 -7 -6 -5 -8 -9 -10 -8 -8 -9 -4 -4 -7 -7 -6 -11 -11 -10 -10 -11 -10 -9 -8
2 1 -1 -1 1 1 -0 -0 -1 -1 -1 -1 -1 -2 -2 -1 -2 -1 -1 -5 -5 -5 -5 -6 -6 -6 -4 -6 -9 -8 -8 -10 -10 -10 -7 -4 -4 -12 -11 -11 -11 -11 -10 -8 -8
4 -1 -1 1 1 -1 -0 -0 -0 -0 -1 -1 -2 -2 -2 -1 -1 0 -1 -4 -5 -5 -7 -6 -6 -7 -4 -5 -7 -6 -8 -10 -9 -7 -6 -7 -6 -9 -11 -11 -10 -10 -9 -8 -9
4 3 -2 0 1 -1 -2 -1 -0 0 -1 -2 -2 -2 -2 -1 -1 -0 0 -2 -3 -3 -6 -6 -4 -5 -5 -5 -5 -5 -5 -8 -9 -8 -6 -5 -8 -8 -9 -12 -11 -10 -8 -9 -9
3 3 2 1 0 -1 -0 -0 -1 -1 -1 -1 -2 -2 -2 -3 -4 -1 -0 -1 -2 -4 -6 -6 -4 -7 -6 -8 -8 -6 -7 -5 -8 -9 -9 -9 -8 -11 -11 -12 -11 -10 -8 -9 -9
1 2 2 1 0 -1 -0 -2 -1 -2 -1 -2 -1 -2 -2 -2 -3 -2 -2 -2 -3 -5 -5 -5 -5 -6 -4 -7 -5 -2 -3 -5 -6 -8 -8 -6 -6 -11 -11 -10 -10 -10 -9 -9 -9
Wind_Speed
11 11 12 12 13 15 16 16 15 14 14 15 14 14 13 13 15 11 17 15 12 10 11 14 17 16 17 21 11 7 5 2 5 5 5 9 5 4 4 8 4 4 9 16 11
11 11 12 12 13 14 15 15 16 13 13 12 10 12 12 11 13 17 13 9 7 7 6 8 6 7 12 9 8 8 5 2 1 6 5 9 5 10 5 11 9 18 18 13 9
9 11 12 13 15 15 14 15 13 12 9 7 8 6 6 5 7 15 10 6 5 7 4 6 4 6 11 10 9 6 4 4 3 9 19 11 8 5 15 2 10 20 17 12 7
10 12 14 15 13 14 16 14 12 8 5 3 3 2 2 4 4 12 11 11 7 6 7 5 2 5 7 6 5 7 8 5 9 10 9 9 11 9 1 2 10 15 12 9 5
11 14 16 16 16 14 13 12 9 5 5 5 3 3 5 13 12 11 10 9 7 4 6 5 10 8 6 7 7 7 5 9 11 9 10 12 7 5 3 12 16 14 10 7 3
13 15 17 18 14 11 11 9 7 8 9 8 9 11 11 19 13 10 10 6 10 7 7 4 9 19 16 7 6 8 16 13 7 7 7 6 4 1 10 17 16 13 11 8 4
15 16 17 14 10 11 11 12 10 10 9 11 13 11 19 12 12 9 9 12 12 8 7 9 4 1 9 8 13 14 6 3 3 6 3 7 2 5 16 19 16 15 12 9 7
16 16 15 10 13 12 13 9 10 8 7 7 8 5 9 10 10 7 11 10 13 17 18 18 17 20 8 19 5 4 4 2 3 6 2 1 6 4 20 23 19 17 15 12 10
16 15 14 14 12 11 9 7 6 6 4 4 6 7 5 7 8 8 8 13 12 11 10 8 11 11 6 4 4 6 0 1 2 10 5 2 5 4 22 23 21 19 18 16 13
15 15 15 13 11 10 7 7 5 3 4 3 6 8 5 5 7 8 3 3 2 3 3 4 7 5 4 4 2 2 1 2 4 5 4 4 11 6 23 25 25 22 20 20 16
16 15 12 11 11 9 8 6 0 3 19 10 8 7 6 4 8 7 0 1 1 5 4 7 7 3 0 0 1 2 2 3 3 5 4 7 8 8 23 26 25 24 25 23 18
15 13 12 9 8 4 6 2 4 6 9 11 9 9 10 4 2 9 4 1 3 2 4 6 3 2 2 4 1 2 1 3 2 3 6 3 10 6 16 22 30 29 28 25 19
14 12 10 8 3 1 5 8 7 3 3 5 8 6 5 6 6 10 8 4 5 4 5 5 0 3 2 4 3 1 2 2 3 2 2 6 7 2 3 10 18 25 25 22 19
13 12 10 5 1 11 12 7 4 2 4 5 3 4 5 2 4 9 7 3 5 3 2 3 3 1 2 2 2 2 1 0 2 3 3 4 5 4 3 6 12 21 19 19 18
12 11 9 3 3 9 6 3 4 1 3 1 3 3 6 4 1 7 8 3 3 2 2 2 2 3 3 1 2 3 2 2 1 3 3 2 2 6 2 7 11 20 20 16 17
12 9 6 3 4 6 3 5 1 5 3 1 2 3 3 6 3 4 3 5 4 3 4 1 1 2 1 1 1 1 2 4 3 2 2 0 3 6 4 5 3 6 23 20 18
11 7 3 4 4 3 1 3 5 3 2 1 0 3 3 4 5 6 5 7 3 2 4 4 1 1 2 1 0 4 4 4 5 4 4 2 0 9 4 5 3 7 22 21 17
10 8 4 4 1 2 1 4 1 2 4 0 1 2 2 2 3 5 3 3 4 3 2 2 4 1 2 2 1 3 2 4 4 3 5 1 6 5 1 1 2 6 18 20 17
9 9 7 5 2 1 2 3 5 5 3 6 2 2 1 1 2 4 2 2 1 2 1 1 4 0 2 2 1 1 3 1 3 2 2 3 7 6 1 1 3 10 18 19 15
9 7 9 8 5 3 3 4 3 2 2 2 5 2 4 2 1 2 1 1 2 2 2 1 4 0 0 2 5 2 5 2 3 3 5 5 6 6 5 6 7 12 19 18 15
7 4 5 9 5 3 3 5 3 4 3 4 5 3 2 3 2 2 2 0 1 1 2 2 2 3 1 3 5 1 1 4 3 3 3 4 6 6 5 5 10 21 23 20 16
5 2 3 8 3 2 3 4 3 4 3 1 3 2 4 4 3 3 4 1 2 2 2 1 3 4 4 1 2 1 3 4 4 4 2 2 7 1 2 6 9 18 23 19 15
3 4 4 10 3 2 2 1 3 3 3 3 3 1 1 4 2 3 3 3 3 2 4 4 0 4 5 2 3 2 3 4 4 2 6 3 7 3 1 2 6 16 21 20 16
3 1 4 8 4 6 5 4 3 3 3 3 3 2 3 2 2 5 3 2 2 3 5 4 2 5 5 5 2 4 5 5 4 3 3 7 10 13 7 7 10 17 21 20 16
4 3 3 3 4 5 5 6 5 5 3 5 1 4 5 4 2 4 3 3 1 4 3 3 3 3 7 9 4 6 8 8 9 6 7 4 7 20 7 10 21 21 22 20 17
3 2 2 2 2 7 4 7 9 4 7 4 4 5 5 4 5 8 6 5 4 2 4 1 1 3 6 2 4 6 9 10 8 4 11 17 21 8 5 5 13 24 25 23 19
5 6 3 2 3 3 5 6 9 11 5 2 6 6 4 2 2 6 5 7 8 7 5 3 3 3 6 4 8 6 6 8 5 5 7 7 9 5 4 10 17 25 26 23 19
Wind_Direction
123 126 121 123 125 124 126 125 121 122 116 111 104 100 100 90 77 95 59 29 46 78 97 102 109 90 75 69 62 75 67 106 161 152 148 148 136 134 130 142 113 141 146 148 148
125 124 126 127 128 129 128 127 126 123 115 109 106 113 109 100 83 74 46 43 54 60 93 124 104 91 69 43 37 59 81 119 68 142 148 152 146 140 133 119 98 120 136 144 148
127 129 127 130 130 125 127 128 127 121 111 91 104 122 123 97 78 17 35 45 38 35 55 40 69 78 67 44 22 40 116 145 25 139 140 136 130 143 142 197 179 162 152 149 144
134 135 134 134 131 126 130 126 129 119 91 85 75 93 126 33 73 15 30 38 38 27 1 338 289 72 68 52 30 92 61 119 132 137 127 139 137 140 132 234 170 154 147 150 156
138 139 135 129 128 129 127 129 128 96 75 69 70 109 111 83 34 37 38 35 32 16 358 30 89 95 94 104 76 80 110 91 128 129 120 138 141 168 190 143 150 154 161 164 174
139 138 135 133 129 125 126 129 118 98 92 83 88 103 104 80 51 35 43 35 49 12 33 70 102 107 89 60 54 104 107 114 120 127 138 132 147 162 164 160 164 171 176 183 204
141 140 140 137 129 124 123 118 108 103 98 95 99 103 84 74 59 45 50 59 47 40 92 95 86 84 99 100 107 112 83 92 131 151 151 131 220 231 185 178 179 186 193 199 218
143 141 141 140 130 129 130 112 103 94 112 99 83 106 80 78 72 88 54 63 63 73 82 88 96 84 80 115 82 70 77 80 184 171 151 62 271 197 183 182 191 198 202 208 226
147 146 141 134 129 135 137 123 93 75 109 94 85 99 83 81 82 77 71 79 80 68 66 62 76 85 93 83 48 14 151 245 302 197 147 159 265 186 184 193 201 206 211 216 226
149 146 142 132 131 135 140 141 87 55 82 68 66 95 72 42 50 41 80 49 6 338 355 40 62 76 44 59 228 215 236 253 257 210 165 190 261 191 196 203 211 214 216 221 228
151 150 147 139 144 136 149 143 201 73 65 64 57 80 63 58 51 24 353 221 295 37 34 27 65 79 201 219 153 130 175 251 227 178 161 226 261 231 208 211 219 221 222 223 228
154 156 153 147 167 153 176 206 101 122 68 58 65 67 51 49 54 33 22 358 43 50 348 24 83 223 133 25 140 174 256 279 274 134 190 265 261 236 195 216 220 224 224 223 222
160 160 157 142 151 265 166 122 105 84 88 37 47 44 40 43 48 14 25 32 69 49 10 122 187 310 170 46 59 199 200 247 252 342 224 327 293 279 219 220 228 234 236 227 226
164 165 165 144 113 133 115 94 34 15 73 314 3 25 4 61 59 23 19 37 40 140 87 81 328 67 93 82 108 337 275 283 308 55 281 15 286 288 272 254 237 232 222 220 219
169 171 178 185 143 153 127 46 357 357 17 319 359 34 36 70 8 8 25 63 84 98 97 267 351 33 65 334 159 242 353 302 358 121 27 352 76 263 352 266 244 227 211 208 206
168 172 190 208 169 167 147 6 94 41 264 341 359 3 49 34 33 349 61 72 86 95 46 173 100 86 222 304 195 330 93 51 60 97 4 257 137 280 212 217 310 199 206 199 199
175 175 191 198 177 192 223 335 39 132 14 266 28 54 71 9 16 34 34 19 51 15 354 341 263 10 36 27 184 58 42 342 351 8 238 153 74 250 253 237 232 220 196 192 197
189 198 193 198 217 202 232 47 182 202 204 74 94 78 87 14 21 18 67 43 44 60 70 47 319 68 18 87 182 43 117 140 285 279 287 102 235 256 230 10 278 226 190 186 197
202 212 227 231 263 241 189 69 217 201 170 152 81 100 350 36 117 79 46 162 144 63 110 18 282 121 68 120 77 73 46 162 115 56 5 248 291 279 182 121 139 155 176 189 195
214 228 241 244 252 224 88 230 218 206 153 143 173 166 193 244 140 93 212 131 123 76 117 153 320 257 50 113 50 93 156 22 20 325 298 282 287 243 269 231 204 196 195 196 197
217 235 245 226 221 193 181 223 214 206 184 158 196 155 187 162 157 175 169 184 152 94 98 119 108 294 16 193 173 70 36 55 122 134 205 299 266 217 215 206 209 211 206 201 200
208 247 236 192 167 66 173 192 181 175 185 128 119 122 167 165 137 172 209 182 148 123 98 82 147 274 244 358 63 104 185 148 126 245 219 147 274 86 261 265 234 216 205 200 202
242 237 213 191 173 232 238 215 184 170 194 158 153 182 162 157 155 181 166 163 147 117 139 165 353 334 339 33 12 204 188 118 103 78 212 153 266 163 217 232 227 202 193 193 198
268 301 191 201 216 147 160 205 195 191 168 147 137 130 121 134 18 180 164 181 148 117 124 134 159 191 214 228 169 234 193 180 151 157 202 231 282 289 237 224 214 200 194 192 197
246 261 213 230 232 173 166 157 149 180 201 178 141 212 173 155 155 187 137 146 139 146 117 127 227 209 254 257 224 237 221 184 195 194 194 269 219 280 292 222 229 206 191 191 198
279 292 291 282 193 137 173 216 178 177 153 223 198 167 188 175 194 199 152 195 183 166 139 62 248 7 290 174 197 267 233 215 225 233 258 266 277 290 264 241 198 198 194 199 205
259 279 268 273 177 139 216 194 204 155 203 181 180 130 168 195 138 102 129 120 152 148 159 132 131 67 269 338 307 295 226 185 191 202 182 222 254 167 224 224 210 200 201 206 210
Height
1538 1540 1540 1541 1542 1544 1544 1546 1548 1550 1547 1548 1548 1548 1549 1550 1551 1549 1547 1552 1550 1550 1550 1549 1549 1548 1547 1548 1552 1554 1576 1592 1592 1594 1598 1600 1601 1604 1605 1606 1607 1608 1609 1611 1613
1540 1541 1543 1543 1545 1546 1548 1548 1549 1552 1550 1550 1550 1550 1551 1551 1551 1550 1554 1553 1553 1552 1552 1552 1551 1549 1549 1554 1557 1560 1583 1586 1589 1590 1594 1597 1598 1602 1605 1606 1609 1608 1610 1611 1613
1542 1543 1545 1546 1547 1548 1551 1550 1553 1554 1553 1553 1553 1553 1553 1552 1553 1555 1554 1554 1554 1554 1553 1553 1552 1550 1554 1559 1565 1570 1584 1587 1589 1588 1591 1595 1599 1601 1602 1606 1604 1605 1608 1610 1612
1545 1545 1546 1548 1550 1551 1552 1554 1556 1556 1555 1555 1555 1555 1554 1554 1563 1559 1556 1555 1555 1555 1554 1553 1552 1552 1562 1568 1571 1580 1586 1587 1591 1592 1593 1597 1599 1601 1601 1602 1603 1606 1608 1609 1610
1546 1548 1549 1549 1552 1554 1555 1556 1558 1557 1556 1556 1556 1556 1556 1557 1563 1560 1559 1558 1557 1556 1555 1554 1553 1556 1566 1572 1574 1580 1587 1589 1592 1594 1595 1597 1599 1600 1601 1602 1604 1606 1608 1608 1609
1548 1550 1551 1552 1555 1557 1558 1559 1560 1559 1558 1559 1558 1558 1558 1559 1564 1563 1561 1560 1558 1558 1557 1555 1556 1559 1565 1574 1576 1584 1587 1592 1595 1596 1597 1598 1600 1600 1603 1602 1603 1605 1606 1607 1607
1551 1552 1554 1556 1558 1559 1560 1561 1562 1561 1561 1561 1560 1561 1560 1565 1566 1564 1563 1562 1561 1560 1559 1560 1560 1561 1569 1579 1584 1587 1592 1594 1595 1596 1597 1598 1602 1598 1598 1601 1602 1603 1605 1605 1606
1553 1555 1557 1559 1560 1561 1563 1564 1563 1563 1563 1563 1562 1562 1564 1567 1567 1567 1566 1565 1566 1564 1563 1565 1565 1563 1572 1581 1586 1590 1593 1596 1595 1596 1598 1599 1595 1593 1596 1598 1600 1601 1603 1604 1603
1556 1558 1560 1561 1562 1564 1565 1566 1565 1564 1564 1564 1564 1563 1568 1569 1569 1569 1569 1569 1568 1568 1567 1567 1566 1572 1580 1584 1592 1595 1596 1595 1594 1596 1597 1600 1592 1592 1595 1596 1597 1599 1600 1601 1601
1559 1560 1561 1562 1564 1566 1567 1567 1567 1566 1566 1565 1564 1566 1570 1572 1570 1571 1571 1571 1571 1570 1569 1568 1570 1577 1584 1588 1597 1592 1595 1595 1594 1594 1597 1599 1594 1592 1592 1593 1593 1595 1596 1596 1598
1561 1562 1564 1565 1567 1567 1568 1569 1571 1570 1567 1570 1570 1570 1571 1572 1572 1572 1572 1572 1572 1571 1575 1573 1581 1590 1586 1586 1586 1587 1590 1591 1589 1590 1595 1594 1591 1587 1588 1590 1591 1591 1590 1592 1595
1562 1564 1566 1567 1568 1569 1569 1569 1570 1573 1573 1572 1572 1572 1572 1572 1573 1573 1573 1575 1573 1578 1577 1580 1588 1584 1584 1585 1586 1587 1588 1590 1588 1591 1594 1589 1584 1581 1582 1582 1583 1584 1585 1589 1593
1564 1566 1568 1569 1570 1570 1570 1571 1572 1572 1573 1575 1574 1574 1574 1575 1575 1575 1575 1575 1577 1581 1583 1584 1586 1583 1584 1587 1587 1588 1588 1588 1590 1590 1591 1590 1580 1580 1581 1581 1581 1581 1584 1587 1590
1565 1568 1569 1570 1573 1571 1571 1573 1573 1573 1583 1580 1576 1576 1576 1575 1577 1577 1576 1578 1579 1583 1584 1586 1585 1584 1585 1587 1589 1587 1586 1586 1588 1594 1600 1594 1595 1579 1582 1580 1577 1577 1581 1584 1588
1568 1570 1571 1572 1572 1572 1574 1573 1573 1574 1601 1580 1577 1577 1576 1577 1580 1578 1577 1577 1581 1583 1585 1587 1586 1586 1586 1587 1587 1588 1587 1588 1590 1596 1598 1597 1605 1574 1583 1578 1571 1572 1577 1581 1583
1569 1571 1572 1573 1573 1574 1574 1574 1574 1587 1596 1580 1577 1577 1578 1578 1579 1579 1578 1579 1581 1583 1584 1586 1585 1585 1586 1586 1586 1587 1588 1592 1597 1600 1601 1595 1598 1576 1577 1570 1568 1569 1572 1576 1579
1570 1572 1573 1574 1574 1574 1574 1575 1588 1598 1583 1582 1580 1579 1581 1583 1582 1582 1586 1589 1592 1589 1591 1587 1585 1585 1585 1586 1587 1588 1593 1602 1597 1600 1595 1598 1599 1570 1564 1566 1567 1566 1568 1573 1576
1570 1572 1573 1574 1574 1574 1574 1576 1589 1584 1584 1579 1580 1580 1584 1585 1587 1587 1589 1595 1594 1595 1601 1598 1593 1586 1586 1587 1589 1592 1594 1605 1602 1606 1603 1600 1595 1564 1564 1565 1565 1564 1568 1572 1573
1571 1572 1573 1573 1574 1574 1575 1589 1585 1581 1578 1580 1580 1583 1586 1585 1586 1589 1593 1596 1596 1596 1596 1600 1591 1587 1586 1587 1590 1593 1599 1599 1604 1613 1617 1595 1581 1562 1565 1566 1566 1567 1568 1569 1572
1570 1572 1572 1573 1573 1574 1576 1583 1579 1577 1577 1578 1582 1582 1587 1587 1587 1588 1592 1594 1595 1595 1596 1599 1601 1588 1589 1588 1591 1591 1597 1601 1611 1602 1603 1592 1590 1573 1560 1563 1565 1567 1566 1567 1570
1571 1572 1570 1571 1573 1574 1581 1581 1577 1576 1577 1578 1581 1583 1584 1585 1588 1591 1592 1595 1594 1594 1595 1598 1603 1592 1590 1590 1591 1597 1598 1606 1608 1613 1608 1612 1580 1555 1554 1556 1558 1558 1560 1563 1566
1570 1572 1569 1570 1574 1576 1578 1575 1575 1575 1576 1577 1578 1579 1583 1584 1587 1591 1590 1592 1593 1593 1595 1599 1605 1604 1589 1590 1589 1590 1592 1598 1608 1605 1618 1620 1586 1553 1554 1554 1553 1553 1556 1560 1564
1569 1568 1568 1569 1575 1577 1575 1574 1574 1575 1576 1577 1578 1578 1581 1583 1586 1588 1590 1592 1591 1592 1594 1598 1602 1604 1586 1591 1590 1590 1592 1597 1604 1609 1609 1606 1573 1551 1553 1553 1551 1551 1554 1558 1561
1570 1568 1567 1568 1567 1568 1573 1573 1574 1574 1575 1575 1577 1578 1581 1583 1584 1588 1590 1592 1592 1592 1593 1595 1602 1597 1597 1584 1587 1589 1590 1593 1595 1606 1599 1592 1559 1546 1551 1551 1550 1550 1553 1555 1558
1568 1565 1565 1567 1564 1565 1567 1570 1572 1574 1574 1574 1576 1577 1579 1584 1584 1585 1587 1591 1592 1593 1593 1594 1598 1600 1592 1588 1588 1584 1583 1588 1590 1584 1583 1561 1567 1540 1543 1543 1541 1545 1550 1553 1555
1568 1567 1565 1564 1563 1564 1566 1569 1568 1570 1571 1573 1573 1573 1577 1579 1577 1581 1582 1585 1584 1592 1592 1595 1595 1598 1590 1581 1583 1581 1577 1579 1581 1578 1578 1564 1557 1539 1539 1538 1538 1541 1545 1548 1550
1566 1566 1565 1564 1563 1564 1562 1560 1562 1563 1568 1568 1568 1571 1575 1576 1576 1576 1578 1579 1579 1585 1592 1595 1597 1599 1590 1584 1583 1575 1556 1567 1563 1563 1558 1557 1536 1536 1536 1535 1534 1537 1540 1543 1546